Regional Weather Roundup
Issued by NWS Newport/Morehead, NC

Current Version | Previous Version | Graphics & Text | Print | Product List | Glossary On
Versions: 1 2 3 4 5 6 7 8 9 10 11 12 13 14 15 16 17 18 19 20 21 22 23 24 25 26 27 28 29 30 31 32 33 34 35 36 37 38 39 40 41 42 43 44 45 46 47 48 49 50
000 ASUS42 KMHX 281722 RWRMHX WEATHER ROUNDUP FOR EASTERN NORTH CAROLINA NATIONAL WEATHER SERVICE NEWPORT/MOREHEAD CITY NC 1200 PM EST WED JAN 28 2015 NOTE: "FAIR" INDICATES FEW OR NO CLOUDS BELOW 12,000 FEET WITH NO SIGNIFICANT WEATHER AND/OR OBSTRUCTIONS TO VISIBILITY NCZ015>017-031-032-045>047-102-103-281800- NORTH COAST CITY SKY/WX TMP DP RH WIND PRES REMARKS EDENTON SUNNY 38 16 40 N9 30.21F ELIZABETH CITY SUNNY 36 15 42 N13 30.20F KITTY HAWK SUNNY 35 20 53 N9G17 30.17S MANTEO SUNNY 36 21 55 N13G20 30.18F $$ NCZ045>047-081-094-103-104-281800- CENTRAL COAST CITY SKY/WX TMP DP RH WIND PRES REMARKS FRISCO MOSUNNY 37 26 64 N9G24 30.16S SWANQUARTER NOT AVBL $$ NCZ095-097-098-100-101-281800- SOUTHERN COAST CITY SKY/WX TMP DP RH WIND PRES REMARKS BEAUFORT SUNNY 40 23 50 N13 30.18F CEDAR ISLAND NOT AVBL JACKSONVILLE SUNNY 41 19 41 N15G21 30.21S PINEY ISLAND N/A N/A N/A N/A MISG 30.18F WILMINGTON SUNNY 40 20 44 N14G22 30.22S $$ NCZ011>013-027>030-043-044-078>080-089-090>093-098-281800- COASTAL PLAIN CITY SKY/WX TMP DP RH WIND PRES REMARKS AHOSKIE SUNNY 36 7 29 N13 30.23F CLINTON SUNNY 40 17 39 NW9 30.26S ELIZABETHTOWN SUNNY 41 16 36 N5 30.24F GOLDSBORO SUNNY 40 16 37 N12 30.23S GREENVILLE SUNNY 39 12 33 N13G18 30.24S HAVELOCK SUNNY 40 20 44 N14 30.21S KENANSVILLE SUNNY 40 16 38 NW9 30.24F KINSTON SUNNY 39 16 38 N12G20 30.24S NEW BERN SUNNY 42 17 36 N12G21 30.21F RICHLANDS SUNNY 39 18 41 NW8 30.22F ROCKY MOUNT SUNNY 40 14 34 N7G18 30.25S WASHINGTON SUNNY 37 11 34 NW9G17 30.22S WHITEVILLE SUNNY 40 15 37 N7 30.24F $$ AMZ130-135-150-152-154-156-158-170-250-252-270-ANZ085-086-088-633-658-670-281800- MARINE OBSERVATIONS STATION/POSITION TIME TEMP WIND PRES WAVE SWELL AIR SEA DIR/SP/G HT/PER HT/PER (UTC) (F) (DEG/KT/KT) (MB) (FT/S) (FT/S) CHESAPEAKE LIGHT 1700 31 330/ 23/ 25 1022.3 64 E VA BEACH 1700 35 51 340/ 23/ 29 1019.6 10/12 7/12 DUCK 1700 32 42 330/ 18/ 23 1020.9 2 E DUCK 1700 43 N/A 7/13 3/13 10 NE DUCK 1700 46 N/A 9/13 5/13 OREGON INLET 1700 34 42 340/ 16/ 21 1021.5 13E OREGON INLT 1700 45 N/A 10/13 5/13 HATTERAS CG 1700 36 45 340/ 18/ 23 1021.7 DIAMOND BUOY 1700 38 59 350/ 23/ 29 1020.0 9/12 7/12 17 S OCRACOKE NOT AVBL CAPE LOOKOUT 1700 38 360/ 12/ 16 1021.7 BEAUFORT LAB 1700 37 46 350/ 9/ 15 1021.0 27 SE WRIGHTSVLE NOT AVBL 5 SE WRIGHTSVLE 1700 39 53 360/ 17/ 19 1022.7 225 S CAPE HAT 1644 56 71 310/ 19/ 25 1017.1 11/13 7/13 41 SE CHARLESTON 1700 40 67 360/ 17/ 23 1023.4 5/ 6 2/12 $$

USA.gov is the U.S. government's official web portal to all federal, state and local government web resources and services.